Theta_e
280 277 273 274 280 280 278 276 275 276 281 278 275 275 276 279 280 278 278 279 281 281 283 285 287 287 286 286 286 286 287 287 288 287 286 287 285 286 287 287 289 289 288 289
276 273 276 280 282 279 278 275 275 278 279 277 274 274 277 277 277 278 278 278 280 280 282 283 284 284 285 284 284 285 286 286 287 287 287 286 285 285 286 288 288 289 289 289
273 275 280 279 277 279 277 276 275 276 278 277 274 273 273 277 278 279 280 280 280 280 280 281 282 283 283 284 284 285 286 286 286 287 287 287 286 285 285 285 286 287 289 289
274 278 278 277 277 277 276 279 279 279 276 268 278 267 273 274 276 277 279 278 279 280 281 281 281 281 282 283 284 285 285 285 286 286 286 285 283 282 284 285 286 286 287 287
273 274 275 276 277 279 278 280 280 280 275 272 273 266 274 275 274 276 277 278 278 280 281 280 281 282 282 283 283 284 284 285 285 285 285 283 283 283 283 283 284 284 285 286
274 276 275 275 278 280 281 279 279 277 274 263 269 267 269 272 275 276 279 279 280 280 280 280 281 282 281 282 283 283 284 285 285 285 285 284 283 283 283 283 283 283 284 284
274 273 275 277 275 278 278 275 263 264 263 265 271 266 271 277 278 279 280 280 280 280 280 280 279 279 280 281 282 283 283 283 284 284 284 284 283 283 282 282 282 282 282 282
272 271 274 276 274 274 274 273 266 259 264 266 271 265 273 277 281 282 281 282 281 280 281 280 280 280 280 281 281 282 283 283 284 283 283 284 283 283 283 283 282 282 282 282
270 272 274 276 275 275 273 272 273 260 252 261 268 273 276 278 280 280 281 279 279 280 280 281 281 281 280 280 281 281 281 282 283 283 283 283 283 282 282 282 282 282 282 284
275 270 274 275 275 275 274 275 268 264 260 259 267 268 272 274 277 279 279 279 280 281 281 281 281 281 281 280 281 281 282 282 282 283 283 283 283 283 283 282 282 282 283 283
276 273 271 273 272 271 270 270 270 268 266 261 261 269 274 277 277 278 280 281 280 281 281 282 282 282 281 281 280 281 281 281 282 283 283 283 283 283 283 283 283 283 283 283
277 271 264 270 271 272 272 272 272 265 264 265 266 268 279 279 278 278 279 281 281 282 282 282 282 281 280 280 280 280 281 281 282 282 283 283 283 283 283 282 283 283 282 282
277 269 263 269 271 272 269 272 273 266 264 262 263 269 277 276 277 278 277 278 281 281 281 281 280 281 281 281 280 280 281 281 282 282 282 282 282 282 282 282 282 282 282 282
280 270 271 272 272 270 267 269 269 267 262 266 268 272 275 276 275 277 278 278 279 281 282 281 280 281 281 281 281 281 281 281 282 282 281 281 282 282 282 282 282 282 281 281
274 269 269 267 270 269 270 271 270 269 272 270 274 272 278 278 277 277 278 279 279 279 279 280 280 280 280 280 280 280 281 281 282 281 281 281 282 282 281 282 282 282 281 281
274 266 265 265 266 269 270 272 271 272 273 271 271 270 277 275 276 276 277 277 278 279 280 281 281 281 281 281 280 280 281 281 282 281 281 282 281 281 281 281 281 281 280 279
270 267 266 266 263 261 266 269 272 272 271 274 271 276 278 275 277 279 278 277 278 279 281 280 281 281 281 280 280 280 281 281 280 280 281 281 281 280 280 280 280 280 277 277
268 268 266 262 260 263 275 271 275 275 277 276 275 276 276 278 277 278 279 278 278 279 280 280 279 279 280 280 280 281 281 280 280 280 280 280 280 280 280 279 279 277 276 274
273 271 264 266 263 271 276 271 271 271 273 277 276 278 279 275 274 276 278 279 280 277 280 281 281 281 280 280 280 280 280 280 279 278 278 278 279 278 278 276 275 275 273 273
271 269 272 258 261 266 280 277 274 276 272 280 278 278 278 275 271 277 280 280 280 279 276 279 280 280 279 278 279 280 279 276 275 277 277 276 274 275 274 272 271 272 272 271
266 267 268 266 268 269 275 273 277 271 276 280 278 279 275 275 279 278 279 278 280 278 276 278 278 279 279 277 279 277 274 274 276 273 272 271 271 270 271 270 270 269 268 269
267 266 265 263 264 266 275 274 277 282 278 279 277 278 277 279 278 278 278 278 278 276 275 277 276 277 276 276 277 275 272 274 272 270 269 267 267 269 269 267 266 266 266 264
272 275 271 273 273 276 277 280 279 279 279 278 277 277 279 278 277 277 277 278 278 278 277 276 277 276 272 274 276 275 274 271 269 268 266 265 267 267 268 266 264 263 264 263
271 276 274 273 279 275 275 279 277 278 279 279 278 278 278 277 277 278 277 278 278 278 278 275 275 273 273 271 274 274 269 270 269 266 265 266 266 265 264 268 268 265 262 262
282 275 275 274 279 276 279 278 280 280 279 279 278 278 278 278 278 279 278 278 278 278 278 277 277 277 275 273 270 266 269 270 268 266 266 266 267 265 265 265 264 267 266 267
280 279 275 276 282 280 283 280 280 279 278 279 278 277 278 279 279 279 278 278 278 277 277 276 275 274 271 270 268 265 267 268 267 267 267 265 265 263 264 263 261 266 268 269
Wind_Speed
8 10 6 5 6 6 9 7 7 2 3 6 3 4 6 6 6 6 5 4 5 3 4 5 6 5 3 2 4 3 4 5 4 3 3 3 4 3 4 4 5 6 6 7
8 8 5 2 8 10 8 7 3 3 3 5 4 3 6 6 6 6 7 7 6 4 5 5 4 5 4 3 2 1 3 4 3 2 2 2 1 2 1 3 4 5 5 6
7 2 5 4 6 9 5 3 2 4 3 4 5 4 5 7 6 6 8 7 7 8 7 6 6 5 4 4 4 2 1 1 2 3 2 2 3 2 2 2 2 4 5 5
7 4 4 5 4 2 3 2 2 3 3 2 3 4 6 7 9 8 11 9 9 8 6 6 7 6 7 7 6 5 5 4 3 2 1 2 1 1 1 2 2 3 4 5
1 3 5 6 1 2 3 0 2 2 3 4 2 5 6 5 9 14 13 13 11 10 8 8 8 8 8 7 7 6 6 5 4 4 3 2 2 3 2 2 4 4 4 5
4 1 2 1 2 1 1 3 5 4 3 4 5 5 6 8 12 7 14 16 14 12 11 9 9 7 7 6 6 7 7 7 6 6 6 6 5 4 2 3 3 3 3 4
1 1 2 2 2 3 1 4 4 7 5 6 1 3 12 8 8 9 18 18 17 15 13 11 10 8 8 9 8 7 8 8 7 7 7 7 7 6 6 6 4 4 3 2
5 5 4 1 1 3 2 4 7 6 2 5 5 7 8 6 8 8 8 12 13 14 13 13 12 9 9 9 9 8 8 8 7 7 8 6 7 5 5 5 4 4 3 4
5 3 2 2 1 1 3 2 3 9 0 5 3 9 8 3 5 6 8 8 13 15 15 16 12 11 9 9 9 9 8 8 7 8 7 7 6 7 6 7 5 4 5 4
6 4 2 2 2 1 2 4 4 4 1 4 6 7 8 6 12 9 10 12 12 13 14 14 13 13 10 9 8 8 8 9 8 8 7 6 7 7 7 6 7 7 6 5
5 4 2 1 7 9 2 3 2 4 5 7 2 9 9 10 11 15 15 13 13 14 15 15 14 12 12 8 8 9 8 9 8 7 7 7 7 7 6 6 6 6 6 6
7 6 4 5 0 1 2 5 6 7 7 4 3 12 5 9 8 9 13 13 10 12 13 12 13 11 10 9 8 9 8 8 9 8 7 7 7 6 6 7 7 6 7 6
9 2 3 9 3 3 6 6 5 4 4 8 8 10 3 5 7 8 10 10 11 11 10 11 8 10 12 11 9 9 8 9 8 6 7 7 8 7 8 8 7 6 6 6
7 4 9 11 10 7 7 7 7 8 5 6 11 9 8 10 11 9 10 10 10 13 13 11 9 12 11 11 10 10 9 8 8 7 7 7 8 7 7 7 7 6 6 6
6 9 6 4 2 3 5 6 17 15 16 13 12 20 21 16 15 15 13 8 8 11 11 13 13 11 11 9 8 7 7 7 7 7 7 9 7 6 6 7 6 6 6 5
4 3 3 5 3 3 8 8 13 21 9 17 14 19 13 4 7 7 12 11 15 13 14 13 13 11 11 12 9 8 9 8 6 7 8 7 6 6 6 6 6 5 5 4
9 8 5 9 3 6 16 22 24 12 10 16 20 28 12 10 17 19 13 13 15 14 16 15 15 14 11 10 9 9 9 6 6 6 7 7 6 6 6 6 5 5 4 4
9 7 3 3 3 9 7 6 16 30 23 27 14 15 10 15 10 12 12 11 15 14 14 13 9 9 9 7 7 7 6 6 6 7 7 6 5 7 6 6 6 4 3 3
3 5 4 6 7 12 30 8 12 13 23 29 26 32 23 5 3 9 12 14 15 12 11 11 11 8 7 8 8 7 6 6 4 7 7 5 6 6 6 5 4 3 2 2
4 4 4 5 6 16 27 14 11 10 29 22 27 27 19 9 6 14 11 14 15 10 7 9 9 7 7 7 7 7 7 4 6 7 7 5 3 5 4 2 2 2 2 2
5 3 16 9 9 17 8 12 10 11 10 12 17 22 12 13 15 5 10 9 11 9 10 7 7 9 9 7 7 7 5 7 7 4 3 2 2 3 2 3 2 1 2 2
16 15 9 3 5 26 11 7 25 17 6 9 10 12 18 21 9 7 9 8 10 11 8 8 8 8 6 6 7 7 7 5 5 4 3 3 4 3 3 3 1 0 1 2
12 13 13 18 16 4 21 14 17 3 7 8 9 10 17 12 11 11 9 10 10 11 9 8 10 8 4 7 7 7 6 6 5 5 4 3 3 3 3 3 2 1 1 1
9 7 9 5 26 17 18 15 4 9 7 5 5 10 14 11 13 12 8 8 9 8 8 6 8 6 6 6 6 6 5 5 6 5 4 3 3 2 1 1 1 1 1 2
13 16 16 11 27 5 19 18 12 13 8 6 6 9 16 12 13 15 12 10 9 9 7 7 9 8 7 7 5 3 5 6 5 4 3 2 2 2 3 2 1 1 3 4
15 19 16 21 13 19 25 19 20 16 17 17 12 8 9 15 14 14 13 11 11 9 7 7 7 6 5 6 7 5 4 5 5 4 3 3 3 2 2 2 1 6 7 10
Wind_Direction
16 66 56 329 14 60 89 94 108 166 219 78 67 153 214 217 219 235 247 226 208 200 205 189 186 183 139 64 69 48 40 21 18 7 5 11 34 25 30 15 12 22 21 27
40 51 350 62 67 75 70 94 75 66 141 88 199 238 239 220 225 209 213 225 213 214 200 205 180 186 178 165 136 90 66 46 36 24 12 33 22 40 21 354 2 16 22 22
97 10 347 70 54 75 35 85 207 144 131 62 129 301 219 235 232 220 226 215 214 211 212 217 202 195 196 206 204 199 187 93 41 34 34 18 33 15 356 343 340 2 8 19
82 350 59 60 62 47 76 350 72 121 60 167 141 259 248 218 225 219 220 218 216 214 215 215 211 211 209 219 210 207 198 191 194 157 95 93 129 57 259 266 297 330 353 351
35 29 43 56 336 330 161 263 77 86 72 60 321 72 251 159 235 226 217 217 215 211 207 213 212 214 216 208 208 212 215 217 211 200 181 170 201 224 247 289 324 327 325 337
107 107 84 172 307 3 118 83 36 49 74 15 233 130 262 191 208 216 212 214 209 207 210 212 214 213 219 215 215 213 217 227 219 214 214 210 224 244 271 288 299 304 314 315
49 8 354 52 61 21 70 71 352 358 7 221 95 35 245 230 217 202 202 209 205 202 201 205 206 210 213 210 214 214 213 230 223 219 227 227 231 234 240 252 253 270 282 270
151 311 163 44 223 181 142 152 155 204 213 268 352 243 251 218 228 221 211 202 196 200 201 203 205 204 211 212 213 214 215 230 227 226 234 233 233 229 232 235 237 245 243 257
133 218 155 120 75 135 202 205 148 102 179 47 239 281 293 215 212 219 219 187 200 200 198 204 205 205 207 210 215 209 217 231 234 230 230 234 233 235 238 244 241 248 248 247
209 87 199 134 136 106 208 153 68 360 114 283 283 275 246 238 231 223 225 213 208 201 202 205 205 206 209 208 210 210 213 219 227 227 226 228 228 233 237 242 244 239 252 242
136 99 272 32 200 173 161 199 53 118 145 173 242 260 215 218 206 212 221 217 207 203 204 205 208 207 206 205 205 215 214 220 232 229 234 238 241 241 245 246 251 247 262 255
181 136 175 189 80 19 237 208 162 130 239 235 151 269 214 215 221 208 224 217 213 210 207 206 206 201 202 208 210 214 218 216 224 226 231 237 248 250 250 247 247 238 244 251
183 236 42 343 359 351 229 196 168 105 76 205 144 259 247 259 254 231 223 216 213 210 210 208 196 203 207 211 210 215 218 224 228 227 229 245 247 243 245 246 248 250 248 251
128 151 174 204 207 137 193 198 177 141 139 198 220 255 259 235 232 232 225 222 212 213 210 208 205 210 209 209 207 215 229 218 226 225 230 240 245 240 244 251 248 246 238 239
154 204 169 258 268 206 219 180 184 199 213 196 221 225 241 229 216 222 223 215 216 216 209 207 206 205 205 206 212 220 233 223 221 226 227 234 240 247 254 255 250 248 235 230
187 225 110 289 349 307 258 229 200 221 239 257 257 263 244 267 216 224 218 203 219 213 214 207 205 199 204 211 210 209 222 224 200 220 234 240 242 252 253 258 254 245 238 222
157 139 115 256 9 349 274 206 212 202 201 218 227 238 244 222 220 224 224 205 213 215 216 208 205 203 205 206 199 213 214 209 208 227 241 245 247 259 259 257 251 241 223 207
152 141 125 214 37 258 281 184 198 214 219 223 258 257 207 231 224 221 224 203 217 220 210 209 193 198 207 195 198 215 206 210 215 230 237 242 238 246 248 241 236 222 217 212
151 154 154 174 200 299 271 185 167 173 237 226 222 243 242 162 95 272 220 208 216 205 199 197 192 194 187 185 198 198 199 210 195 231 238 234 230 243 244 232 221 218 202 212
95 19 172 128 188 232 272 182 155 105 272 203 210 230 229 136 204 243 210 195 207 196 174 170 181 181 175 197 169 184 211 185 223 234 237 238 220 235 235 181 189 200 191 237
155 189 213 198 232 270 186 150 129 163 256 192 183 216 154 191 211 224 169 192 188 183 180 169 164 181 197 154 165 192 193 217 230 205 227 232 212 172 157 162 161 182 244 277
166 164 190 108 194 255 135 136 187 213 180 162 181 189 184 207 180 183 193 184 171 172 156 167 166 199 185 162 158 198 209 219 195 184 174 163 161 163 164 160 171 214 301 302
207 199 186 190 213 192 185 205 219 219 162 194 171 188 193 191 198 179 194 182 176 170 163 166 174 196 146 175 181 193 229 172 161 138 152 152 142 149 161 157 161 56 347 313
244 182 232 105 240 234 208 227 211 199 224 189 198 171 168 183 180 189 171 174 173 170 170 160 156 182 201 197 189 204 158 147 135 138 138 142 147 159 159 78 103 147 269 273
218 157 213 247 257 343 226 221 209 220 202 211 196 185 193 181 183 179 177 178 181 175 165 164 174 186 207 172 182 165 155 136 127 118 127 132 129 118 93 83 155 264 244 255
201 209 201 229 219 213 243 206 211 213 200 207 186 187 193 183 184 171 183 176 177 175 161 176 178 175 170 135 119 109 114 120 124 123 134 138 126 95 97 85 342 342 331 330